Zurück zum Katalog

DELTA 1 DEB

AktivLEO
NORAD 14480·DEBRIS·🇺🇸 United States

Gestartet Nov 6, 1973 von Vandenberg Space Force Base

Loading…

Nächste Überflüge (nächste 24 Stunden)

TLE

AktuellSource: Space-Track

Epoche: Sep 14, 2026, 11:27 UTC

1 14480U 73086GR  26257.47746977  .00030991  00000-0  10702-1 0  9997
2 14480 102.6262 144.7890 0006165 215.8023 318.3369 14.35689772 72262

Verfolge DELTA 1 DEB in Echtzeit mit AllMySat

Download on the App Store